Regional Weather Roundup
Issued by NWS Pendleton, OR

Home | Current Version | Previous Version | Text Only | Print | Product List | Glossary On
Versions: 1 2 3 4 5 6 7 8 9 10 11 12 13 14 15 16 17 18 19 20 21 22 23 24 25 26 27 28 29 30 31 32 33 34 35 36 37 38 39 40 41 42 43 44 45 46 47 48 49 50
000
ASUS46 KPDT 271325
RWRPDT
PENDLETON REGIONAL WEATHER ROUNDUP
NATIONAL WEATHER SERVICE PENDLETON OREGON
500 AM PST THU NOV 27 2014

NOTE: FAIR INDICATES FEW OR NO CLOUDS BELOW 12,000 FEET WITH NO
SIGNIFICANT WEATHER AND/OR OBSTRUCTIONS TO VISIBILITY.

# INDICATES UNOFFICIAL STATION AND DATA

WAZ520-271410-
EAST SLOPES OF WASHINGTON CASCADES

CITY            SKY/WX      TMP DP  RH  WIND    PRES   REMARKS
#BULLFROG 2SW   N/A         41  41  100 S1      27.48F
#BUMPING DAM    N/A         41  N/A N/A S2      N/A
#CLE ELUM HS    N/A         39  38  96  CALM    29.85S
#CLE ELUM 2NW   N/A         38  38  100 CALM    N/A
#CLE ELUM LAKE  N/A         N/A N/A N/A W15     29.83F
#CLIFFDEL 2NW   N/A         45  39  79  NW6     N/A
#GLENWOOD       N/A         50  45  83  S5      29.93F
#MANASTASH CYN  N/A         37  34  89  CALM    29.84F
#NELSON         N/A         38  37  96  CALM    29.91F
#NELSON 3SW     N/A         40  39  96  CALM    30.10S
#NILE           N/A         36  35  96  CALM    29.17S
#RONALD 2NW     N/A         43  41  93  CALM    29.75F
#SNOWDEN        N/A         49  39  68  NW6     N/A
#TEANAWAY 4NE   N/A         39  39  100 CALM    N/A
#TROUT LAKE HS  N/A         52  46  80  W2      N/A
#TROUT LAKE 1NE N/A         50  45  83  SW5     29.97S
$$

WAZ521-271410-
SIMCOE HIGHLANDS

CITY            SKY/WX      TMP DP  RH  WIND    PRES   REMARKS
#BICKLETON HS   N/A         50  33  52  W7      30.06S
#CENTERVILLE 4W N/A         51  45  80  N8      29.72R
#CENTERVILLE 1SWN/A         50  43  77  NW2     29.93R
#GOLDENDALE     N/A         52  44  74  W7      N/A
#GOLDENDALE 1NE N/A         55  38  53  W9      N/A
#GOLDENDALE 1S  N/A         52  45  77  W7      29.93S
#GOLDENDALE 5WNWN/A         54  45  71  NW12    29.94R
#GOODNOE HILLS  N/A         49  43  80  W10     N/A
#LYLE 6NE       N/A         54  46  74  W1      29.93S
$$

WAZ026-271410-
KITTITAS VALLEY

CITY            SKY/WX      TMP DP  RH  WIND    PRES   REMARKS
ELLENSBURG AP   FOG         35  33  92  CALM    29.87F VSB 1/2
#ELLENSBURG CWU N/A         33  32  96  SW3     29.89R
#ELLENSBURG 3NE N/A         32  31  96  CALM    29.89F
#ELLENSBURG     N/A         35  35  100 S2      N/A
#ELLENSBURG 1E  N/A         32  31  96  CALM    N/A
#KITTITAS 4N    N/A         34  31  89  CALM    29.91F
#KITTITAS 3S    N/A         31  30  96  CALM    29.93S
#THORP 6N       N/A         43  42  96  CALM    29.92F
$$

WAZ027-271410-
YAKIMA VALLEY

CITY            SKY/WX      TMP DP  RH  WIND    PRES   REMARKS
SUNNYSIDE AP    CLOUDY      55  41  59  W8      29.90R
YAKIMA AIRPORT  CLOUDY      51  39  63  S7      29.86F
YAKIMA-VAGABOND MOCLEAR     48  38  68  VRB3    29.87S
#DONALD 2NE     N/A         58  40  51  NE3     28.74S
#GRANDVIEW      N/A         60  39  46  SW2     29.92F
#MABTON         N/A         63  44  50  SW15G26 29.88F
#MOXEE 2E       N/A         57  33  40  S14     29.81F
#NACHES 2SW     N/A         49  41  74  CALM    29.87F
#OUTLOOK DOT    N/A         N/A N/A N/A S5      N/A
#SELAH 8E       N/A         50  38  63  S12     N/A
#TERRACE HTS    N/A         50  41  71  E1      29.85F
#TOPPENISH      N/A         58  41  53  CALM    29.81F
#WAPATO 4NE     N/A         58  40  51  NE3     28.74S
#WEST VALLEY    N/A         55  42  61  SW2     29.86F
#W YAKIMA       N/A         56  42  59  SW2     29.88F
#WHITE SWAN 5E  N/A         58  45  62  W13     29.89F
#WILEY CITY 3W  N/A         54  44  69  W7      29.88F
$$

WAZ028-271410-
LOWER COLUMBIA BASIN...WASHINGTON

CITY            SKY/WX      TMP DP  RH  WIND    PRES   REMARKS
PASCO           CLOUDY      44  43  96  S8      29.93S
PROSSER AWOS    N/A         59  43  55  S9      29.94R
RICHLAND AWOS   CLOUDY      43  N/A N/A CALM    29.91F
#BASIN CITY 5SW N/A         43  42  96  S2      29.90S
#CONNELL 5N     N/A         47  42  83  SW1     29.92F
#CONNELL 5NW    N/A         46  42  86  SW1     29.88F
#ELTOPIA 6NW    N/A         46  43  89  S3      28.87S
#KAHLOTUS       N/A         53  42  66  W16     29.91F
#KENNEWICK      N/A         41  41  100 S1      27.48F
#KENNEWICK 3S   N/A         54  44  69  S5      29.94F
#PATERSON       N/A         44  42  93  CALM    29.93S
#PROSSER        N/A         55  43  64  S9      29.93R
#SAGEMOOR 2W    N/A         46  42  86  CALM    29.78S
#TOUCHET 2S     N/A         42  41  96  CALM    29.91F
#WEST PASCO     N/A         46  45  96  E1      29.92F
$$

WAZ029-271410-
FOOTHILLS OF THE BLUES...WASHINGTON

CITY            SKY/WX      TMP DP  RH  WIND    PRES   REMARKS
WALLA WALLA AP  CLOUDY      57  39  51  SE6     29.93F
#COLLEGE PLACE  N/A         50  39  66  CALM    29.94F
#DAYTON SCHOOL  N/A         56  36  47  CALM    29.94F
#LOWDEN 2SE     N/A         42  41  96  CALM    29.90S
#PLEASANT VIEW 1N/A         49  41  74  S10     29.95F
#PRESCOTT       N/A         52  43  71  CALM    29.91F
#SUDBURY        N/A         50  N/A N/A CALM    N/A
#WHITMAN COLLEGEN/A         58  40  51  SE2     29.96F
#WAITSBURG 5S   N/A         54  40  59  S1      30.01F
#WAITSBURG 8N   N/A         48  25  40  CALM    29.91S
#WALLA WALLA 5E N/A         58  39  49  S6      N/A
#WALLA WALLA U  N/A         54  44  69  CALM    29.91F
#WHITMAN MISSIONN/A         47  44  89  CALM    29.93F
$$

WAZ030-271410-
BLUE MOUNTAINS...WASHINGTON

CITY            SKY/WX      TMP DP  RH  WIND    PRES   REMARKS
#DIXIE 5SE      N/A         57  28  33  SW10    29.91S
$$

ORZ009-041-WAZ024-271410-
COLUMBIA RIVER GORGE

CITY            SKY/WX      TMP DP  RH  WIND    PRES   REMARKS
HOOD RIVER AP   CLOUDY      54  48  80  S5      29.97S
THE DALLES AP   CLOUDY      50  46  86  SE3     29.95F
#ARLINGTON AIRPON/A         47  44  89  SW1     29.99R
#CELILO DOT     N/A         51  44  77  CALM    N/A
#MARYHILL 2W    N/A         58  46  64  NW10    N/A
#MOSIER 1S      N/A         50  45  83  SW6     30.00S
#MURDOCK        N/A         54  49  83  W15     29.97F
#RUFUS DOT      N/A         57  41  55  NE5     N/A

$$

ORZ510-271410-
NORTH CENTRAL OREGON

CITY            SKY/WX      TMP DP  RH  WIND    PRES   REMARKS
#CHENOWITH 1W   N/A         50  45  83  NW24    N/A
#COW CYN RST AREN/A         54  36  50  S10     N/A
#DUFUR 9E       N/A         50  43  77  CALM    29.99R
#GRASS VALLEY   N/A         51  37  59  S5      N/A
#GRASS VALLEY 1SN/A         49  38  66  W3      29.99R
#KENT DOT       N/A         51  29  42  SW10    N/A
#MORO SCHOOL    N/A         51  47  86  W7      29.98R
#SHANIKO 5WSW   N/A         52  27  38  S29     N/A
#SHANIKO 4NW    N/A         51  34  52  SW5     29.97F
#TYGH VALLEY 2NEN/A         44  41  89  CALM    29.95F
#WAPANITIA AIRPON/A         58  39  49  SW1     29.97F
#WASCO DOT      N/A         44  42  93  SW2     N/A
#WASCO 5NE      N/A         49  43  80  N5      29.93S
$$

ORZ511-271410-
CENTRAL OREGON

CITY            SKY/WX      TMP DP  RH  WIND    PRES   REMARKS
BEND AIRPORT    PTCLDY      48  32  54  S5      30.03F
MADRAS AIRPORT  CLOUDY      54  34  47  S3      30.01F
PRINEVILLE AP   MOCLDY      52  34  50  S14     30.03F
REDMOND AIRPORT MOCLDY      53  34  48  S16G26  30.01F
#BEND 1SW       N/A         44  36  73  N2      N/A
#BEND-AWBREY    N/A         50  36  58  NE6     30.00F
#BEND-KIM LN    N/A         49  37  63  SW7     30.02S
#CROOKED RVR RANN/A         52  36  54  SW30G47 29.99F
#CULVER         N/A         54  34  47  SE3     29.96F
#LAKE BILLY CHINN/A         59   0   9  S12     30.08S
#POWELL BUTTE   N/A         55  34  45  W15     29.66F
#PRINEVILLE 3N  N/A         51  36  56  NE3     30.00F
#WARM SPRINGS   N/A         60  41  49  SE3     29.93S


ORZ509-271410-
EAST SLOPES OF OREGON CASCADES

CITY            SKY/WX      TMP DP  RH  WIND    PRES   REMARKS
#BLUE BOX PASS  N/A         47  -4  11  NW7     N/A
#BLACK BUTTE RNCN/A         51  37  59  S1      30.00S
#CAMP SHERMAN   N/A         53  36  52  NE2     29.98R
#LA PINE DOT    N/A         44  29  55  SW5     N/A
#LA PINE 4NW    N/A         45  35  68  CALM    30.15F
#LAVA BUTTE DOT N/A         46  29  51  S3      N/A
#MT BACHELOR-MIDN/A         37  29  72  S24G35  N/A    WCI 26
#SISTERS AIRPOR N/A         57  41  55  N7G24   29.91S
#SISTERS ODOT   N/A         56  N/A N/A N3      N/A
#SISTERS 3N     N/A         52  34  50  CALM    30.04S
#SUNRIVER       N/A         44  36  73  SW3     29.96F
#SUNRIVER AP    N/A         57  49  75  N1      29.94F
#SUTTLE LK DOT  N/A         47  36  65  W30G47  N/A    WCI 38
#TUMALO 3W      N/A         55  34  45  S10     29.87F
#WANOGA BUTTE D N/A         43  30  60  W18G32  N/A    WCI 35

$$

ORZ044-271410-
LOWER COLUMBIA BASIN...OREGON

CITY            SKY/WX      TMP DP  RH  WIND    PRES   REMARKS
HERMISTON       CLOUDY      45  41  86  S6      29.93S
#BOARDMAN 3W    N/A         38  37  96  CALM    29.71R
#BOARDMAN 8SW   N/A         44  42  93  W1      29.93S
#ECHO 8SW       N/A         48  43  83  SW2     29.90F
#IONE SCHOOL    N/A         54  38  55  CALM    29.94S
#IRRIGON 4NW    N/A         41  41  100 W2      N/A
#UMATILLA SCHOOLN/A         40  40  100 CALM    29.96S
#UMATILLA       N/A         42  38  86  CALM    29.92R
$$

ORZ507-271410-
NORTHERN FOOTHILLS OF THE BLUES

CITY            SKY/WX      TMP DP  RH  WIND    PRES   REMARKS
PENDLETON AIRPT CLOUDY      59  34  39  SW12    29.93F
#ADAMS 3WNW     N/A         52  41  66  CALM    29.93F
#ATHENA         N/A         60  38  44  SW2     29.95F
#CAYUSE         N/A         63  36  36  SW3     29.92S
#HELIX SCHOOL   N/A         51  40  66  S6      29.94F
#HELIX 3N       N/A         54  40  59  N2      29.92S
#HELIX 6SW      N/A         55  41  59  SE5     29.94S
#HOLDMAN 5SE    N/A         52  42  69  CALM    29.94S
#HOLDMAN 6E     N/A         54  39  57  NW7     29.74F
#M-F FERNDALE   N/A         50  41  71  CALM    29.92F
#M-F GROVE ELEM N/A         59  39  47  CALM    29.92S
#M-FREEWATER 5SEN/A         65  37  35  SW3G26  29.94S
#PENDLETON DNTN N/A         50  41  71  CALM    28.73F
#PDT AQUATIC CTRN/A         55  40  57  CALM    29.94S
#PENDLETON 5NE  N/A         52  42  69  CALM    29.91F
#PDT SUNRIDGE   N/A         57  40  53  CALM    29.95S
#PENDLETON 7NW  N/A         51  40  66  CALM    27.38F
#TUTUILLA       N/A         59  38  45  S6      29.93S
#UMAPINE 2E     N/A         56  42  59  SW1     29.90F
#WESTON SCHOOL  N/A         63  28  26  SW8     29.92S

$$

ORZ508-271410-
SOUTHERN FOOTHILLS OF THE BLUES

CITY            SKY/WX      TMP DP  RH  WIND    PRES   REMARKS
LEXINGTON       MOCLDY      55  36  49  SE6     29.96S
#AJAX           N/A         55  31  40  SW5     29.91R
#CONDON SCHOOL  N/A         51  34  52  CALM    29.94S
#CONDON 5W      N/A         51  31  46  SW13    29.96R
#FOSSIL SCHOOL  N/A         53  33  46  CALM    29.96S
#HEPPNER EOC    N/A         56  33  42  SE5     29.88S
#HEPPNER 4NE    N/A         57  33  40  CALM    29.93S
#LEXINGTON 2SE  N/A         57  35  43  CALM    29.91S
#MIKKALO        N/A         55  36  49  W5      29.94S
#OLEX 4N        N/A         54  40  59  CALM    29.93S
#RUGGS 5NE      N/A         53  30  41  S12     30.14R
#RUGGS 2SW      N/A         53  32  45  W7      29.96S

$$

ORZ502-503-271410-
BLUE MOUNTAINS

CITY            SKY/WX      TMP DP  RH  WIND    PRES   REMARKS
MEACHAM         CLOUDY      45  38  76  CALM    30.01F
#BATTLE MTN DOT N/A         46  34  63  S9      N/A
#HARDMAN 10S    N/A         45  30  55  S3      30.13S
#HEPPNER 15SE   N/A         51  30  44  E6      29.91F
#LADD CYN SMT   N/A         45  32  60  E10     N/A
#LADD CREEK ODOTN/A         50  36  58  SW3     N/A
#LONG CREEK HS  N/A         54  33  45  SW17G28 29.98F
#N POWDER DOT   N/A         41  38  89  W2      N/A
#PIKES PEAK     N/A         57  30  35  SW25G36 27.99S
#TOLLGATE       N/A         46  32  58  SW6     29.96F
#TROY SCHOOL    N/A         44  39  82  W2      29.86F
#UKIAH          N/A         34  32  92  CALM    30.08R
#WESTON 4E      N/A         56  33  42  SE6     29.90F
$$

ORZ505-271410-
JOHN DAY BASIN

CITY            SKY/WX      TMP DP  RH  WIND    PRES   REMARKS
JOHN DAY        PTCLDY      55  31  40  S15G24  30.06R
#DAYVILLE SCHOOLN/A         58  30  34  S9      30.01F
#MONUMENT HS    N/A         38  35  89  CALM    30.03S
#WINLOCK        N/A         44  32  62  W2      30.09S
$$

ORZ506-271410-
OCHOCO AND JOHN DAY HIGHLANDS

CITY            SKY/WX      TMP DP  RH  WIND    PRES   REMARKS
#BUCK CREEK DOT N/A         53  38  57  NE5     N/A
#HORSE RIDGE DO N/A         55  31  40  S3G31   N/A
#KEYES SMT DOT  N/A         47  24  40  S7      N/A
#PINE MTN OBS   N/A         43  31  62  SE7G28  N/A
#PRAIRIE CITY   N/A         46  31  56  CALM    30.12F
#SENECA         N/A         45  N/A N/A SE6     N/A
#SENECA 9NW     N/A         33  32  96  CALM    30.19F
$$

ORZ049-271410-
GRANDE RONDE VALLEY

CITY            SKY/WX      TMP DP  RH  WIND    PRES   REMARKS
LA GRANDE       CLOUDY      54  34  47  S20G28  30.03S
#COVE           N/A         51  45  80  SE6     30.03S
#COVE SCHOOL    N/A         50  39  66  W1      30.01S
#COVE 6NW       N/A         49  39  68  S2      30.06F
#ELGIN 3N       N/A         52  36  54  S9      29.74S
#ELGIN 1E       N/A         51  39  63  S5      N/A
#IMBLER SCHOOL  N/A         49  39  68  S10     30.00S
#ISLAND CITY 4N N/A         57  49  75  CALM    29.93F
#LADD CYN DOT   N/A         51  36  56  S13     N/A
#UNION 1S       N/A         51  40  66  S10     29.96R
$$

ORZ050-271410-
WALLOWA COUNTY

CITY            SKY/WX      TMP DP  RH  WIND    PRES   REMARKS
JOSEPH AIRPORT  PTCLDY      54  28  36  CALM    30.03R
#ENTERPRISE AP  N/A         56  29  35  S3      29.96S
#ENTERPRISE HS  N/A         56  33  42  S2      30.03S
#IMNAHA SCHOOL  N/A         60  39  46  S12G26  29.98F
#IMNAHA 10S     N/A         56  37  49  SW2     30.01F
#JOSEPH 3N      N/A         54  35  48  W5      30.03S
#JOSEPH 3W      N/A         53  29  39  S6      29.85F
#LOSTINE        N/A         39  37  92  S3      29.84S
#MT HOWARD 8000 N/A         37  27  67  W25G45  30.08R WCI 25
#PROMISE 1S     N/A         45  37  73  E2      30.09F
#SHEEP RDG 7000 N/A         42  25  51  CALM    29.94F
#WALLOWA SCHOOL N/A         37  36  96  SE1     30.97F



$$



USA.gov is the U.S. government's official web portal to all federal, state and local government web resources and services.